This is the latest recevied weather packets stored in our database for station/object KD9ZDW. If no packets are shown the sender has not sent any weather packets the latest 10 day(s).
| Time | Temp. | Humidity | Pressure | Rain* | Wind** | Luminosity | Snow |
|---|---|---|---|---|---|---|---|
| 1777916726 | 23.33° C | 52% | 1005.9 hPa | 0 mm | - | 718 W/m² | - |
| 1777916422 | 22.78° C | 51% | 1005.8 hPa | 0 mm | - | 753 W/m² | - |
| 1777916119 | 22.22° C | 52% | 1005.9 hPa | 0 mm | - | 715 W/m² | - |
| 1777915816 | 22.22° C | 51% | 1005.8 hPa | 0 mm | - | 723 W/m² | - |
| 1777915512 | 22.78° C | 51% | 1006.1 hPa | 0 mm | - | 705 W/m² | - |
| 1777915209 | 22.22° C | 52% | 1006.2 hPa | 0 mm | - | 703 W/m² | - |
| 1777914906 | 22.22° C | 50% | 1006.2 hPa | 0 mm | - | 706 W/m² | - |
| 1777914603 | 21.67° C | 53% | 1006.5 hPa | 0 mm | - | 705 W/m² | - |
| 1777914299 | 21.67° C | 55% | 1006.5 hPa | 0 mm | - | 695 W/m² | - |
| 1777913996 | 21.11° C | 53% | 1006.5 hPa | 0 mm | - | 710 W/m² | - |
| 1777913692 | 21.11° C | 52% | 1006.5 hPa | 0 mm | - | 542 W/m² | - |
| 1777913389 | 20.56° C | 51% | 1006.6 hPa | 0 mm | - | 452 W/m² | - |
| 1777913086 | 20.56° C | 50% | 1006.8 hPa | 0 mm | - | 311 W/m² | - |
| 1777912782 | 20.56° C | 52% | 1007 hPa | 0 mm | - | 289 W/m² | - |
| 1777912478 | 20.56° C | 54% | 1006.8 hPa | 0 mm | - | 155 W/m² | - |
| 1777912175 | 20° C | 54% | 1007 hPa | 0 mm | - | 305 W/m² | - |
| 1777911871 | 20.56° C | 54% | 1007 hPa | 0 mm | - | 113 W/m² | - |
| 1777911568 | 20.56° C | 57% | 1007.3 hPa | 0 mm | - | 144 W/m² | - |
| 1777911264 | 20° C | 58% | 1007 hPa | 0 mm | - | 300 W/m² | - |
| 1777910961 | 20° C | 57% | 1007.4 hPa | 0 mm | - | 220 W/m² | - |
| 1777910659 | 20° C | 58% | 1007.5 hPa | 0 mm | - | 252 W/m² | - |
| 1777910355 | 20.56° C | 55% | 1007.4 hPa | 0 mm | - | 210 W/m² | - |
| 1777910052 | 20° C | 58% | 1007.4 hPa | 0 mm | - | 93 W/m² | - |
| 1777909749 | 19.44° C | 57% | 1007.6 hPa | 0 mm | - | 316 W/m² | - |
| 1777909446 | 19.44° C | 59% | 1007.5 hPa | 0 mm | - | 393 W/m² | - |
* Rain latest hour (hover to see other rain measurements)
** Current wind speed in m/s (hover to see current wind gust speed)